Hourly Weather Sergeevka

Today, 14 August, Friday

Time Temperature Precipitation Wind Pressure Humidity
00:00 +18°C° 0 mm 4 mps 761 mmHg 64%
01:00 +18°C° 0 mm 3 mps 761 mmHg 65%
02:00 +17°C° 0 mm 3 mps 761 mmHg 65%
03:00 +17°C° 0 mm 2 mps 761 mmHg 66%
04:00 +17°C° 0 mm 2 mps 761 mmHg 66%
05:00 +17°C° 0 mm 2 mps 761 mmHg 67%
06:00 +19°C° 0 mm 3 mps 761 mmHg 61%
07:00 +21°C° 0 mm 3 mps 761 mmHg 54%
08:00 +23°C° 0 mm 4 mps 761 mmHg 49%
09:00 +25°C° 0 mm 4 mps 761 mmHg 45%
10:00 +26°C° 0 mm 4 mps 761 mmHg 42%
11:00 +27°C° 0 mm 4 mps 761 mmHg 39%
12:00 +27°C° 0 mm 4 mps 761 mmHg 39%
13:00 +27°C° 0 mm 4 mps 760 mmHg 40%
14:00 +27°C° 0 mm 4 mps 760 mmHg 40%
15:00 +27°C° 0 mm 4 mps 760 mmHg 41%
16:00 +27°C° 0 mm 4 mps 760 mmHg 41%
17:00 +26°C° 0 mm 3 mps 760 mmHg 42%
18:00 +25°C° 0 mm 3 mps 760 mmHg 48%
19:00 +23°C° 0 mm 2 mps 760 mmHg 54%
20:00 +21°C° 0 mm 2 mps 761 mmHg 59%
21:00 +21°C° 0 mm 1 mps 761 mmHg 61%
22:00 +21°C° 0 mm 1 mps 761 mmHg 63%
23:00 +20°C° 0 mm 1 mps 761 mmHg 65%

Tomorrow, 15 August, Saturday

Time Temperature Precipitation Wind Pressure Humidity
00:00 +19°C° 0 mm 2 mps 761 mmHg 66%
01:00 +19°C° 0 mm 2 mps 762 mmHg 67%
02:00 +19°C° 0 mm 3 mps 762 mmHg 68%
03:00 +19°C° 0 mm 3 mps 762 mmHg 67%
04:00 +19°C° 0 mm 3 mps 762 mmHg 67%
05:00 +18°C° 0 mm 4 mps 762 mmHg 66%
06:00 +20°C° 0 mm 4 mps 762 mmHg 61%
07:00 +22°C° 0 mm 4 mps 762 mmHg 55%
08:00 +25°C° 0 mm 4 mps 762 mmHg 49%
09:00 +25°C° 0 mm 4 mps 762 mmHg 47%
10:00 +26°C° 0 mm 4 mps 762 mmHg 45%
11:00 +27°C° 0 mm 4 mps 762 mmHg 43%
12:00 +27°C° 0 mm 4 mps 762 mmHg 43%
13:00 +27°C° 0 mm 4 mps 761 mmHg 43%
14:00 +27°C° 0 mm 5 mps 761 mmHg 42%
15:00 +26°C° 0 mm 4 mps 761 mmHg 42%
16:00 +26°C° 0 mm 3 mps 761 mmHg 41%
17:00 +26°C° 0 mm 3 mps 760 mmHg 40%
18:00 +24°C° 0 mm 2 mps 760 mmHg 44%
19:00 +23°C° 0 mm 2 mps 760 mmHg 48%
20:00 +21°C° 0 mm 1 mps 760 mmHg 51%
21:00 +21°C° 0 mm 1 mps 760 mmHg 52%
22:00 +21°C° 0 mm 1 mps 760 mmHg 52%
23:00 +20°C° 0 mm 1 mps 761 mmHg 53%

Day after tomorrow, 16 August, Sunday

Time Temperature Precipitation Wind Pressure Humidity
00:00 +19°C° 0 mm 2 mps 760 mmHg 54%
01:00 +19°C° 0 mm 2 mps 760 mmHg 55%
02:00 +18°C° 0 mm 3 mps 760 mmHg 56%
03:00 +18°C° 0 mm 3 mps 760 mmHg 59%
04:00 +18°C° 0 mm 3 mps 760 mmHg 62%
05:00 +17°C° 0 mm 3 mps 760 mmHg 65%
06:00 +19°C° 0 mm 3 mps 760 mmHg 58%
07:00 +21°C° 0 mm 3 mps 760 mmHg 52%
08:00 +24°C° 0 mm 3 mps 761 mmHg 45%
09:00 +26°C° 0 mm 3 mps 761 mmHg 42%
10:00 +27°C° 0 mm 3 mps 761 mmHg 39%
11:00 +28°C° 0 mm 4 mps 761 mmHg 35%
12:00 +28°C° 0 mm 4 mps 761 mmHg 34%
13:00 +28°C° 0 mm 4 mps 761 mmHg 34%
14:00 +28°C° 0 mm 4 mps 761 mmHg 33%
15:00 +28°C° 0 mm 3 mps 761 mmHg 32%
16:00 +28°C° 0 mm 3 mps 760 mmHg 31%
17:00 +28°C° 0 mm 3 mps 760 mmHg 30%
18:00 +26°C° 0 mm 2 mps 760 mmHg 35%
19:00 +24°C° 0 mm 2 mps 761 mmHg 41%
20:00 +21°C° 0 mm 2 mps 761 mmHg 46%
21:00 +21°C° 0 mm 2 mps 761 mmHg 48%
22:00 +20°C° 0 mm 2 mps 761 mmHg 50%
23:00 +19°C° 0 mm 2 mps 761 mmHg 52%

17 August, Monday

Time Temperature Precipitation Wind Pressure Humidity
00:00 +19°C° 0 mm 2 mps 761 mmHg 52%
01:00 +19°C° 0 mm 2 mps 762 mmHg 52%
02:00 +19°C° 0 mm 3 mps 762 mmHg 52%
03:00 +18°C° 0 mm 3 mps 762 mmHg 52%
04:00 +18°C° 0 mm 3 mps 762 mmHg 52%
05:00 +18°C° 0 mm 3 mps 762 mmHg 52%
06:00 +20°C° 0 mm 3 mps 762 mmHg 47%
07:00 +24°C° 0 mm 3 mps 762 mmHg 42%
08:00 +26°C° 0 mm 3 mps 762 mmHg 37%
09:00 +27°C° 0 mm 3 mps 762 mmHg 34%
10:00 +29°C° 0 mm 2 mps 762 mmHg 30%
11:00 +30°C° 0 mm 2 mps 762 mmHg 27%
12:00 +30°C° 0 mm 3 mps 761 mmHg 28%
13:00 +30°C° 0 mm 3 mps 761 mmHg 28%
14:00 +30°C° 0 mm 4 mps 761 mmHg 29%
15:00 +30°C° 0 mm 4 mps 760 mmHg 31%
16:00 +29°C° 0 mm 4 mps 760 mmHg 33%
17:00 +28°C° 0 mm 4 mps 760 mmHg 34%
18:00 +27°C° 0 mm 4 mps 760 mmHg 41%
19:00 +25°C° 0 mm 3 mps 760 mmHg 48%
20:00 +22°C° 0 mm 3 mps 760 mmHg 55%
21:00 +21°C° 0 mm 3 mps 760 mmHg 57%
22:00 +21°C° 0 mm 3 mps 760 mmHg 58%
23:00 +20°C° 0 mm 3 mps 760 mmHg 60%

18 August, Tuesday

Time Temperature Precipitation Wind Pressure Humidity
00:00 +20°C° 0 mm 3 mps 760 mmHg 58%
01:00 +19°C° 0 mm 3 mps 760 mmHg 57%
02:00 +19°C° 0 mm 2 mps 760 mmHg 56%
03:00 +19°C° 0 mm 2 mps 759 mmHg 56%
04:00 +18°C° 0 mm 2 mps 759 mmHg 57%
05:00 +18°C° 0 mm 2 mps 759 mmHg 58%
06:00 +20°C° 0 mm 2 mps 759 mmHg 51%
07:00 +24°C° 0 mm 1 mps 759 mmHg 44%
08:00 +26°C° 0 mm 1 mps 759 mmHg 37%
09:00 +27°C° 0 mm 1 mps 759 mmHg 33%
10:00 +29°C° 0 mm 2 mps 759 mmHg 30%
11:00 +31°C° 0 mm 2 mps 759 mmHg 26%
12:00 +31°C° 0 mm 3 mps 758 mmHg 27%
13:00 +32°C° 0 mm 4 mps 758 mmHg 27%
14:00 +32°C° 0 mm 4 mps 757 mmHg 27%
15:00 +32°C° 0 mm 4 mps 757 mmHg 30%
16:00 +30°C° 0 mm 5 mps 757 mmHg 33%
17:00 +29°C° 0 mm 5 mps 757 mmHg 36%
18:00 +27°C° 0 mm 4 mps 757 mmHg 45%
19:00 +25°C° 0 mm 4 mps 757 mmHg 53%
20:00 +23°C° 0 mm 4 mps 757 mmHg 62%
21:00 +22°C° 0 mm 4 mps 757 mmHg 62%
22:00 +22°C° 0 mm 4 mps 757 mmHg 63%
23:00 +22°C° 0 mm 4 mps 757 mmHg 64%

19 August, Wednesday

Time Temperature Precipitation Wind Pressure Humidity
00:00 +21°C° 0 mm 3 mps 757 mmHg 66%
01:00 +20°C° 0 mm 3 mps 757 mmHg 68%
02:00 +20°C° 0 mm 3 mps 757 mmHg 69%
03:00 +19°C° 0 mm 3 mps 757 mmHg 72%
04:00 +19°C° 0 mm 3 mps 756 mmHg 75%
05:00 +19°C° 0 mm 2 mps 756 mmHg 78%
06:00 +21°C° 0 mm 2 mps 756 mmHg 66%
07:00 +25°C° 0 mm 3 mps 757 mmHg 55%
08:00 +28°C° 0 mm 3 mps 757 mmHg 43%
09:00 +29°C° 0 mm 3 mps 757 mmHg 38%
10:00 +30°C° 0 mm 4 mps 756 mmHg 34%
11:00 +33°C° 0 mm 5 mps 756 mmHg 30%
12:00 +33°C° 0 mm 5 mps 756 mmHg 31%
13:00 +33°C° 0 mm 6 mps 756 mmHg 32%
14:00 +32°C° 0 mm 6 mps 755 mmHg 33%
15:00 +32°C° 0 mm 6 mps 755 mmHg 35%
16:00 +30°C° 0 mm 5 mps 755 mmHg 38%
17:00 +29°C° 0 mm 5 mps 755 mmHg 41%
18:00 +28°C° 0 mm 5 mps 755 mmHg 48%
19:00 +26°C° 0 mm 5 mps 755 mmHg 56%
20:00 +23°C° 0 mm 5 mps 755 mmHg 64%
21:00 +23°C° 0 mm 4 mps 755 mmHg 66%
22:00 +23°C° 0 mm 4 mps 755 mmHg 68%
23:00 +23°C° 0 mm 4 mps 755 mmHg 70%
Show more